#timestamp,LO_Frequency,Hit,StdDev 
1646881215.5,286046998.1,N
1646881235.3,286047001.0,N
1646881255.1,286047001.2,N
1646881275.9,286046998.8,N
1646881295.7,286046999.0,N
1646881315.5,286046999.8,N
1646881335.4,286047001.0,N
1646881355.2,286046998.1,N
1646881375.1,286046999.7,N
1646881376.0,286046999.7,N
1646881395.8,286047000.1,N
1646881415.6,286046999.9,N
1646881435.5,286046999.0,N
1646881455.3,286047000.8,N
1646881475.2,286047002.3,N
1646881495.9,286046999.8,N
1646881515.7,286047002.6,N
1646881535.6,286047002.5,N
1646881555.4,286047000.3,N
1646881575.3,286047002.3,N
1646881595.1,286047002.6,N
1646881596.0,286047002.6,N
1646881615.8,286047002.5,N
1646881635.7,286047002.6,N
1646881655.5,286047004.3,Y
1646881675.4,286047002.0,P
1646881695.2,286047002.3,P
1646881715.0,286047001.9,N
1646881715.9,286047001.9,N
1646881735.8,286046999.8,N
1646881755.6,286047002.6,N
1646881775.5,286047004.1,Y
1646881795.3,286047001.8,P
1646881815.1,286047003.6,P
1646881835.9,286047002.4,N
1646881855.7,286047001.0,N
1646881875.6,286047000.0,N
1646881895.4,286046998.6,N
1646881915.2,286046998.7,N
1646881935.1,286046999.0,N
1646881936.0,286046999.0,N
1646881955.8,286046999.6,N
1646881975.6,286046998.1,N
1646881995.5,286046998.5,N
1646882015.3,286046999.1,N
1646882035.2,286046998.7,N
1646882055.9,286046999.1,N
1646882075.7,286046998.3,N
1646882095.6,286046997.0,N
1646882115.4,286046996.6,N
1646882135.3,286047000.6,N
1646882155.1,286047002.3,N
1646882156.0,286047002.3,N
1646882175.8,286047002.4,N
1646882195.7,286047001.9,N
1646882215.5,286047001.5,N
1646882235.3,286047002.5,N
1646882255.2,286047002.7,N
1646882275.0,286047000.1,N
1646882275.9,286047000.1,N
1646882295.8,286047001.1,N
1646882315.6,286046999.8,N
1646882335.4,286047002.7,N
1646882355.3,286047002.7,N
1646882375.1,286047002.4,N
1646882395.9,286047001.7,N
1646882415.7,286047001.6,N
1646882435.5,286047000.1,N
1646882455.4,286047000.4,N
1646882475.2,286047001.5,N
1646882495.0,286047001.5,N
1646882495.9,286047001.5,N
1646882515.8,286047002.3,N
1646882535.6,286047002.4,N
1646882555.5,286047001.7,N
1646882575.3,286046999.9,N
1646882595.1,286047001.2,N
1646882615.9,286046998.5,N
1646882635.7,286046998.7,N
1646882655.5,286047000.8,N
1646882675.4,286046998.9,N
1646882695.2,286046998.8,N
1646882715.1,286046999.6,N
1646882716.0,286046999.6,N
1646882735.8,286046999.4,N
1646882755.6,286047001.0,N
1646882775.5,286047000.9,N
1646882795.3,286046999.3,N
1646882815.1,286046999.3,N
1646882835.9,286046996.5,N
1646882855.7,286046999.1,N
1646882875.6,286046997.7,N
1646882895.4,286046999.1,N
1646882915.2,286046998.1,N
1646882935.1,286047002.2,N
1646882936.0,286047002.2,N
1646882955.8,286047001.5,N
1646882975.7,286047000.2,N
1646882995.5,286047004.3,N
1646883015.3,286046999.8,N
1646883035.2,286047001.2,N
1646883055.0,286047000.8,N
1646883055.9,286047000.8,N
1646883075.7,286047001.0,N
1646883095.6,286047001.2,N
1646883115.4,286046997.0,N
1646883135.3,286046999.3,N
1646883155.1,286047000.9,N
1646883156.0,286047000.9,N
1646883175.8,286047001.8,N
1646883195.7,286047002.2,N
1646883215.5,286047000.0,N
1646883235.4,286047002.2,N
1646883255.2,286047002.4,N
1646883275.0,286046999.8,N
1646883275.9,286046999.8,N
1646883295.8,286046999.7,N
1646883315.6,286047000.5,N
1646883335.4,286046999.9,N
1646883355.3,286047001.0,N
1646883375.1,286047001.0,N
1646883395.9,286046998.1,N
1646883415.7,286047000.7,N
1646883435.5,286046999.7,N
1646883455.4,286047001.8,N
1646883475.2,286047002.1,N
1646883495.0,286047002.0,N
1646883495.9,286047002.0,N
1646883515.8,286047002.1,N
1646883535.6,286047000.4,N
1646883555.5,286046998.1,N
1646883575.3,286046998.6,N
1646883595.1,286046998.4,N
1646883615.9,286047001.0,N
1646883635.7,286047002.8,N
1646883655.6,286047000.1,N
1646883675.4,286046998.2,N
1646883695.2,286046998.9,N
1646883715.1,286047000.6,N
1646883716.0,286047000.6,N
1646883735.8,286047000.9,N
1646883755.6,286046998.2,N
1646883775.5,286047001.1,N
1646883795.3,286047001.0,N
1646883815.2,286047000.3,N
1646883835.9,286047000.9,N
1646883855.7,286047001.2,N
1646883875.6,286046999.1,N
1646883895.4,286046999.6,N
1646883915.3,286046999.2,N
1646883935.1,286046998.4,N
1646883936.0,286046998.4,N
1646883955.8,286046999.6,N
1646883975.7,286046999.6,N
1646883995.5,286046999.0,N
1646884015.3,286046996.5,N
1646884035.2,286046997.1,N
1646884055.0,286046996.6,N
1646884055.9,286046996.6,N
1646884075.8,286046997.5,N
1646884095.6,286046997.5,N
1646884115.4,286046998.8,N
1646884135.3,286046999.3,N
1646884155.1,286046997.1,N
1646884175.9,286046999.4,N
1646884195.7,286047001.0,N
1646884215.5,286046999.8,N
1646884235.4,286047000.8,N
1646884255.2,286047000.3,N
1646884275.0,286046998.5,N
1646884275.9,286046998.5,N
1646884295.8,286046998.3,N
1646884315.6,286046998.5,N
1646884335.5,286047001.2,N
1646884355.3,286047000.6,N
1646884375.1,286046998.6,N
1646884395.9,286046997.7,N
1646884415.7,286046995.4,Y
1646884435.5,286046997.7,P
1646884455.4,286046998.2,P
1646884475.2,286046998.5,P
1646884495.1,286047000.8,N
1646884496.0,286047000.8,N
1646884515.8,286047000.0,N
1646884535.6,286047000.1,N
1646884555.5,286047001.4,N
1646884575.3,286047002.8,N
1646884595.1,286047002.5,N
1646884615.9,286047002.2,N
1646884635.7,286047000.2,N
1646884655.6,286047002.8,N
1646884675.4,286047002.8,N
1646884695.2,286047002.5,N
1646884715.1,286047002.1,N
1646884716.0,286047002.1,N
1646884735.8,286047001.3,N
1646884755.6,286047001.9,N
1646884775.5,286047001.8,N
1646884795.3,286047002.0,N
